Regional Weather Roundup
Issued by NWS

Home | Current Version | Previous Version | Text Only | Print | Product List | Glossary On
Versions: 1 2 3 4 5 6 7 8 9 10 11 12 13 14 15 16 17 18 19 20 21 22 23 24 25 26 27 28 29 30 31 32 33 34 35 36 37 38 39 40 41 42 43 44 45 46 47 48 49 50
000
ASUS44 KBMX 280910
RWRAL

ALABAMA REGIONAL WEATHER ROUNDUP
NATIONAL WEATHER SERVICE BIRMINGHAM AL
400 AM CDT MON JUL 28 2014

NOTE: "FAIR" INDICATES FEW OR NO CLOUDS BELOW 12,000 FEET
WITH NO SIGNIFICANT WEATHER AND/OR OBSTRUCTIONS TO VISIBILITY.

THE REMARK "TC" DENOTES TEMPERATURE IN DEGREES CELSIUS.

ALZ001>011-014-016>018-020-281000-
NORTH ALABAMA

CITY           SKY/WX    TMP DP  RH WIND       PRES   REMARKS
MUSCLE SHOALS  PTCLDY    79  76  90 NW5       29.95R
HUNTSVILLE     MOCLDY    79  76  90 NW3       29.93R
DECATUR        MOCLDY    80  77  90 NW7       29.94R
HALEYVILLE     FAIR      77  76  96 CALM      29.98S
GADSDEN        PTCLDY    81  73  78 W6        29.93R
$$

ALZ012-013-022-023-030>036-040>044-281000-
WEST CENTRAL ALABAMA

CITY           SKY/WX    TMP DP  RH WIND       PRES   REMARKS
TUSCALOOSA     CLOUDY    79  74  84 CALM      29.95R
$$

ALZ015-024>027-033>036-040>044-281000-
CENTRAL ALABAMA

CITY           SKY/WX    TMP DP  RH WIND       PRES   REMARKS
BIRMINGHAM     CLOUDY    80  73  79 SW9       29.97S
MONTGOMERY     CLEAR     78  74  87 SW5       29.97R
SHELBY CO ARPT PTCLDY    77  73  87 S3        29.96S
MAXWELL AFB    CLEAR     77  76  97 SW2       29.97R
GREENVILLE     FAIR      77  75  93 SW5       29.99R FOG
$$

ALZ019-021-028-029-037-038-045>048-281000-
EAST CENTRAL ALABAMA

CITY           SKY/WX    TMP DP  RH WIND       PRES   REMARKS
ANNISTON       MOCLDY    77  74  90 W6        29.95S
ALEXANDER CITY PTCLDY    81  74  80 CALM      29.98S HAZE
AUBURN         PTCLDY    75  70  83 SW6       30.02R
$$

ALZ051>064-281000-
SOUTHWEST ALABAMA

CITY           SKY/WX    TMP DP  RH WIND       PRES   REMARKS
MOBILE         CLEAR     77  77 100 W5        30.01S
BROOKLEY FIELD CLEAR     80  77  90 W7        30.01R
EVERGREEN      CLEAR     80  75  84 CALM      30.00R
$$

ALZ049-050-065>069-281000-
SOUTHEAST ALABAMA

CITY           SKY/WX    TMP DP  RH WIND       PRES   REMARKS
DOTHAN         CLEAR     77  75  93 SW7       30.03R
OZARK          CLEAR     77  75  94 S3        29.99R
TROY           CLEAR     76  74  93 SW3       30.00R FOG
EUFAULA        FAIR      79  76  90 W5        29.97R
$$


USA.gov is the U.S. government's official web portal to all federal, state and local government web resources and services.